This is the latest recevied weather packets stored in our database for station/object KB4MOX. If no packets are shown the sender has not sent any weather packets the latest 10 day(s).
| Time | Temp. | Humidity | Pressure | Rain* | Wind** | Luminosity | Snow |
|---|---|---|---|---|---|---|---|
| 1787840581 | 27.22° C | 81% | 1016.8 hPa | 0 mm | - | 103 W/m² | - |
| 1787840276 | 27.22° C | 81% | 1016.7 hPa | 0 mm | - | 135 W/m² | - |
| 1787839975 | 27.22° C | 83% | 1016.7 hPa | 0 mm | - | 136 W/m² | - |
| 1787839671 | 27.22° C | 83% | 1016.9 hPa | 0 mm | - | 155 W/m² | - |
| 1787839372 | 26.67° C | 83% | 1016.9 hPa | 0 mm | - | 128 W/m² | - |
| 1787839071 | 26.67° C | 84% | 1016.8 hPa | 0 mm | - | 117 W/m² | - |
| 1787838770 | 26.67° C | 84% | 1016.8 hPa | 0 mm | - | 134 W/m² | - |
| 1787838465 | 26.67° C | 85% | 1016.6 hPa | 0 mm | - | 113 W/m² | - |
| 1787838164 | 26.67° C | 85% | 1016.6 hPa | 0 mm | - | 110 W/m² | - |
| 1787837858 | 26.11° C | 86% | 1016.5 hPa | 0 mm | - | 92 W/m² | - |
| 1787837553 | 26.11° C | 87% | 1016.5 hPa | 0 mm | - | 92 W/m² | - |
| 1787837252 | 26.11° C | 88% | 1016.4 hPa | 0 mm | - | 83 W/m² | - |
| 1787836952 | 25.56° C | 89% | 1016.6 hPa | 0 mm | - | 81 W/m² | - |
| 1787836647 | 25.56° C | 90% | 1016.4 hPa | 0 mm | - | 86 W/m² | - |
| 1787836341 | 25° C | 91% | 1016.3 hPa | 0 mm | - | 84 W/m² | - |
| 1787836037 | 25° C | 92% | 1016.4 hPa | 0 mm | - | 81 W/m² | - |
| 1787835733 | 24.44° C | 92% | 1016.3 hPa | 0 mm | - | 78 W/m² | - |
| 1787835433 | 24.44° C | 93% | 1016.2 hPa | 0 mm | - | 66 W/m² | - |
| 1787835128 | 24.44° C | 94% | 1016.2 hPa | 0 mm | - | 73 W/m² | - |
| 1787834827 | 23.89° C | 95% | 1016.3 hPa | 0 mm | - | 72 W/m² | - |
| 1787834522 | 23.89° C | 95% | 1016.2 hPa | 0 mm | - | 64 W/m² | - |
| 1787834217 | 23.89° C | 96% | 1016.2 hPa | 0 mm | - | 63 W/m² | - |
| 1787833913 | 23.89° C | 96% | 1016.2 hPa | 0 mm | - | 68 W/m² | - |
| 1787833607 | 23.33° C | 96% | 1016.1 hPa | 0 mm | - | 66 W/m² | - |
| 1787833304 | 23.33° C | 96% | 1016.2 hPa | 0 mm | - | 67 W/m² | - |
* Rain latest hour (hover to see other rain measurements)
** Current wind speed in m/s (hover to see current wind gust speed)